Home   Weather   Ettlingen   Past weeks

Flag for Germany Past Weather in Ettlingen, Baden-Württemberg, Germany — Yesterday and Last 2 Weeks

Now
30 °F

Haze.


Feels Like: 27 °F
Forecast: 15 / 26 °F
Wind: 3 mph from North

Location: Karlsruhe - Baden Wurttemberg

Current Time: Jan 21, 2017 at 4:47:28 pm

Latest Report: Jan 21, 2017 at 3:50 pm


Visibility: 3 mi

Pressure: 30.36 "Hg

Humidity: 75%

Dew Point: 23 °F

Location of EttlingenLocation

Past Weather in Ettlingen — Graph

°F

Ettlingen Temperature Yesterday

Maximum temperature yesterday: 32 °F (at 1:50 pm)
Minimum temperature yesterday: 14 °F (at 8:20 am)
Average temperature yesterday: 23 °F

High & Low Weather Summary for the Past Weeks

 TemperatureHumidityPressure
High46 °F (Jan 12, 11:20 pm)100% (Jan 6, 10:20 pm)30.69 "Hg (Jan 6, 10:20 pm)
Low9 °F (Jan 7, 1:50 am)55% (Jan 17, 3:50 pm)29.33 "Hg (Jan 12, 11:50 pm)
Average30 °F87%30.24 "Hg
* Reported Jan 6 3:20 pm — Jan 21 3:20 pm, Ettlingen, Weather by CustomWeather, © 2017

Note: Actual official high and low records may vary slightly from our data, if they occured in-between our weather recording intervals... More about our weather records

Advertising

Ettlingen Weather History for the Previous 24 Hours

Scroll right to see more
 ConditionsComfort  
Time TempWeatherWind HumidityBarometerVisibility
3:20 pm
Sat, Jan 21
30 °FHaze.5 mph75%30.36 "Hg3 mi
2:50 pm30 °FIce fog.3 mph75%30.36 "Hg3 mi
2:20 pm28 °FIce fog.2 mph80%30.36 "Hg3 mi
1:50 pm28 °FIce fog.2 mph80%30.39 "Hg3 mi
1:20 pm28 °FIce fog.2 mph80%30.39 "Hg2 mi
12:50 pm28 °FIce fog.2 mph80%30.42 "Hg2 mi
12:20 pm27 °FIce fog.2 mph86%30.42 "Hg2 mi
11:50 am25 °FIce fog.2 mph93%30.42 "Hg2 mi
11:20 am23 °FIce fog.1 mph100%30.42 "Hg2 mi
10:50 am21 °FCold.2 mph100%30.42 "Hg1 mi
10:20 am19 °FCold.2 mph100%30.42 "Hg1 mi
9:50 am18 °FIce fog.1 mph100%30.42 "Hg1 mi
9:29 am14 °FSnow. Cloudy.1 mph100%30.42 "Hg1 mi
9:20 am14 °FCold.2 mph100%30.42 "Hg1 mi
8:50 am10 °FIce fog.2 mph100%30.42 "Hg0 mi
8:20 am10 °FIce fog.No wind92%30.42 "Hg0 mi
7:50 am10 °FIce fog.No wind92%30.42 "Hg0 mi
7:23 am12 °FIce fog.No wind92%30.42 "Hg1 mi
7:20 am10 °FIce fog.No wind92%30.42 "Hg3 mi
6:50 am12 °FClear.No wind92%30.42 "Hg4 mi
6:20 am12 °FClear.2 mph85%30.42 "Hg10 mi
5:50 am12 °FClear.No wind92%30.42 "Hg10 mi
5:20 am12 °FClear.No wind92%30.42 "Hg10 mi
4:20 am12 °FClear.No wind92%30.42 "Hg4 mi
11:50 pm
Fri, Jan 20
16 °FClear.2 mph93%30.45 "Hg10 mi
11:20 pm16 °FClear.No wind100%30.45 "Hg10 mi
10:50 pm18 °FClear.No wind100%30.45 "Hg10 mi
10:20 pm18 °FClear.2 mph100%30.45 "Hg10 mi
9:50 pm18 °FClear.3 mph93%30.45 "Hg10 mi
9:20 pm19 °FClear.2 mph93%30.45 "Hg10 mi
8:50 pm21 °FClear.1 mph93%30.45 "Hg10 mi
8:20 pm21 °FClear.2 mph86%30.45 "Hg10 mi
7:50 pm23 °FClear.2 mph80%30.45 "Hg10 mi
7:20 pm23 °FClear.2 mph86%30.45 "Hg10 mi
6:50 pm25 °FClear.1 mph80%30.45 "Hg10 mi
6:20 pm25 °FClear.2 mph80%30.45 "Hg10 mi
5:50 pm27 °FClear.No wind74%30.45 "Hg10 mi
5:20 pm27 °FClear.1 mph74%30.45 "Hg10 mi
4:50 pm28 °FSunny.2 mph69%30.45 "Hg10 mi
4:20 pm32 °FSunny.3 mph64%30.45 "Hg10 mi
Weather by CustomWeather, © 2017

See weather overviewHow to use our weather pages